Weather History for Asheville, NC

Change the Weather History Date:

Tuesday, June 16, 2009

  Actual Average Record
Temperature  
Mean Temperature 73 °F 71 °F  
Max Temperature 83 °F 82 °F 92 °F (1934)
Min Temperature 63 °F 60 °F 43 °F (1933)
Degree Days  
Heating Degree Days 0 0  
Month to date heating degree days 0 11  
Since 1 June heating degree days 0 11  
Since 1 July heating degree days 4213 4192  
Cooling Degree Days 8 6  
Month to date cooling degree days 88 78  
Year to date cooling degree days 142 136  
Since 1 June cooling degree days 88 78  
Growing Degree Days 22 (Base 50)    
Moisture  
Dew Point 65 °F    
Average Humidity 79    
Maximum Humidity 100    
Minimum Humidity 58    
Precipitation  
Precipitation 0.44 in 0.16 in 2.30 in (1900)
Month to date precipitation 4.58 2.44  
Year to date precipitation 25.64 20.69  
Snow  
Snow 0.00 in 0.00 in 0.00 in ()
Month to date snowfall 0.0 0.0  
Since 1 June snowfall 0.0 0.0  
Since 1 July snowfall 6.1 9.9  
Snow Depth 0.00 in    
Sea Level Pressure  
Sea Level Pressure 30.05 in    
Wind  
Wind Speed 4 mph (SSE)    
Max Wind Speed 13 mph    
Max Gust Speed 16 mph    
Visibility 4 miles    
Events Fog , Rain    
T = Trace of Precipitation, MM = Missing Value Source: NWS Daily Summary

Daily Weather History Graph

Daily Weather History Graph

Search for Another Location

Airport:

Trip Planner

Search our weather history database for the weather conditions in past years. The results will help you decide how hot, cold, wet, or windy it might be!

Date:

Astronomy

Jun. 16, 2009 Rise Set
Actual Time 6:14 AM EDT 8:47 PM EDT
Civil Twilight 5:44 AM EDT 9:17 PM EDT
Nautical Twilight 5:07 AM EDT 9:54 PM EDT
Astronomical Twilight 4:26 AM EDT 10:35 PM EDT
Moon 1:29 AM EDT (6/16) 2:19 PM EDT (6/16)
Length of Visible Light 15h 32m
Length of Day
14h 32m
Last Quarter, 42% of the Moon is Illuminated
Jun 16
Last Quarter
Jun 22
New
Jun 29
First Quarter
Jul 7
Full
Jul 15
Last Quarter

Hourly Weather History & Observations

Time (EDT) Temp. Heat Index Dew Point Humidity Pressure Visibility Wind Dir Wind Speed Gust Speed Precip Events Conditions
12:09 AM 66.2 °F - 64.4 °F 94% 30.07 in 5.0 mi Calm Calm - N/A   Partly Cloudy
12:41 AM 64.4 °F - 64.4 °F 100% 30.06 in 1.5 mi Calm Calm - N/A   Partly Cloudy
12:43 AM 64.4 °F - 64.4 °F 100% 30.06 in 0.8 mi Calm Calm - N/A   Mist
12:54 AM 64.0 °F - 64.0 °F 100% 29.98 in 0.5 mi Calm Calm - N/A Fog Fog
1:06 AM 64.4 °F - 64.4 °F 100% 30.05 in 1.5 mi Calm Calm - N/A   Overcast
1:14 AM 64.4 °F - 64.4 °F 100% 30.05 in 0.8 mi Calm Calm - N/A   Overcast
1:25 AM 64.4 °F - 64.4 °F 100% 30.05 in 0.2 mi Calm Calm - N/A Fog Fog
1:54 AM 64.9 °F - 64.9 °F 100% 29.96 in 0.2 mi Calm Calm - N/A Fog Fog
2:10 AM 64.4 °F - 64.4 °F 100% 30.04 in 1.0 mi Calm Calm - N/A   Overcast
2:24 AM 64.4 °F - 64.4 °F 100% 30.05 in 0.5 mi Calm Calm - N/A Fog Fog
2:44 AM 64.4 °F - 64.4 °F 100% 30.04 in 1.8 mi South 3.5 mph - N/A   Overcast
2:51 AM 64.4 °F - 64.4 °F 100% 30.04 in 2.0 mi Calm Calm - N/A   Overcast
2:54 AM 64.4 °F - 64.4 °F 100% 30.04 in 1.8 mi Calm Calm - N/A   Overcast
3:01 AM 64.4 °F - 64.4 °F 100% 30.04 in 0.8 mi Calm Calm - N/A   Overcast
3:30 AM 64.4 °F - 64.4 °F 100% 30.03 in 0.2 mi South 4.6 mph - N/A Fog Fog
3:41 AM 64.4 °F - 64.4 °F 100% 30.04 in 0.5 mi Calm Calm - N/A Fog Fog
3:54 AM 64.0 °F - 64.0 °F 100% 29.98 in 1.0 mi Calm Calm - N/A   Overcast
4:05 AM 62.6 °F - 62.6 °F 100% 30.05 in 2.0 mi Calm Calm - N/A   Overcast
4:13 AM 62.6 °F - 62.6 °F 100% 30.05 in 4.0 mi Calm Calm - N/A   Overcast
4:30 AM 62.6 °F - 62.6 °F 100% 30.06 in 2.5 mi Calm Calm - N/A   Overcast
4:34 AM 62.6 °F - 62.6 °F 100% 30.06 in 1.2 mi Calm Calm - N/A   Overcast
4:42 AM 62.6 °F - 62.6 °F 100% 30.06 in 0.2 mi Calm Calm - N/A Fog Fog
4:54 AM 63.0 °F - 63.0 °F 100% 29.99 in 0.2 mi Calm Calm - N/A Fog Fog
5:54 AM 63.0 °F - 63.0 °F 100% 30.00 in 0.2 mi Calm Calm - N/A Fog Fog
6:01 AM 62.6 °F - 62.6 °F 100% 30.07 in 0.8 mi Calm Calm - N/A   Overcast
6:23 AM 62.6 °F - 62.6 °F 100% 30.07 in 0.2 mi Calm Calm - N/A Fog Fog
6:39 AM 62.6 °F - 62.6 °F 100% 30.07 in 0.8 mi Calm Calm - N/A   Overcast
6:54 AM 63.0 °F - 63.0 °F 100% 30.01 in 1.0 mi Calm Calm - N/A   Overcast
7:05 AM 62.6 °F - 62.6 °F 100% 30.07 in 0.5 mi Calm Calm - N/A Fog Fog
7:24 AM 62.6 °F - 62.6 °F 100% 30.07 in 0.2 mi Calm Calm - N/A Fog Fog
7:35 AM 62.6 °F - 62.6 °F 100% 30.07 in 0.5 mi Calm Calm - N/A Fog Fog
7:54 AM 64.0 °F - 64.0 °F 100% 30.01 in 0.5 mi Calm Calm - N/A Fog Fog
8:12 AM 64.4 °F - 64.4 °F 100% 30.07 in 0.2 mi Calm Calm - N/A Fog Fog
8:51 AM 64.4 °F - 64.4 °F 100% 30.08 in 0.5 mi Calm Calm - N/A Fog Fog
8:54 AM 64.0 °F - 64.0 °F 100% 30.02 in 0.5 mi Calm Calm - N/A Fog Fog
9:09 AM 64.4 °F - 64.4 °F 100% 30.08 in 1.0 mi Calm Calm - N/A   Overcast
9:31 AM 64.4 °F - 64.4 °F 100% 30.09 in 3.0 mi Calm Calm - N/A   Overcast
9:38 AM 64.4 °F - 64.4 °F 100% 30.09 in 2.0 mi Calm Calm - N/A   Overcast
9:54 AM 66.0 °F - 66.0 °F 100% 30.03 in 2.0 mi Calm Calm - N/A   Overcast
10:19 AM 69.8 °F - 66.2 °F 88% 30.09 in 3.0 mi WNW 3.5 mph - N/A   Overcast
10:54 AM 70.0 °F - 66.0 °F 87% 30.02 in 8.0 mi Calm Calm - N/A   Scattered Clouds
11:54 AM 75.9 °F - 66.0 °F 71% 30.01 in 10.0 mi Calm Calm - N/A   Clear
12:54 PM 79.0 °F - 66.0 °F 64% 30.00 in 10.0 mi Variable 3.5 mph - N/A   Partly Cloudy
1:54 PM 80.1 °F 81.9 °F 64.9 °F 60% 29.99 in 10.0 mi South 4.6 mph - N/A   Mostly Cloudy
2:54 PM 81.0 °F 83.8 °F 68.0 °F 65% 29.99 in 10.0 mi SSE 8.1 mph - N/A   Mostly Cloudy
3:54 PM 80.1 °F 82.7 °F 68.0 °F 67% 29.99 in 10.0 mi SSE 8.1 mph - N/A   Mostly Cloudy
4:54 PM 78.1 °F - 70.0 °F 76% 29.99 in 9.0 mi SSW 10.4 mph - 0.00 in   Clear
5:54 PM 77.0 °F - 66.9 °F 71% 29.99 in 10.0 mi SE 5.8 mph - N/A   Clear
6:54 PM 75.9 °F - 68.0 °F 76% 30.00 in 10.0 mi SE 6.9 mph - N/A   Clear
7:54 PM 75.0 °F - 68.0 °F 79% 30.01 in 10.0 mi SSE 8.1 mph - N/A   Mostly Cloudy
8:30 PM 73.4 °F - 66.2 °F 78% 30.09 in 9.0 mi ESE 6.9 mph - 0.00 in Rain Light Rain
8:54 PM 70.0 °F - 66.9 °F 90% 30.02 in 10.0 mi East 8.1 mph - 0.00 in Rain Light Rain
9:21 PM 68.0 °F - 64.4 °F 88% 30.09 in 7.0 mi East 5.8 mph - 0.01 in   Mostly Cloudy
9:52 PM 66.2 °F - 66.2 °F 100% 30.15 in 1.5 mi NE 5.8 mph - 0.18 in Rain Heavy Rain
9:54 PM 66.9 °F - 66.0 °F 97% 30.09 in 1.5 mi NE 5.8 mph - 0.24 in Rain Heavy Rain
9:59 PM 66.2 °F - 66.2 °F 100% 30.15 in 1.2 mi NNE 5.8 mph - 0.04 in Rain Heavy Rain
10:03 PM 66.2 °F - 66.2 °F 100% 30.15 in 1.5 mi Variable 5.8 mph - 0.18 in Rain Heavy Rain
10:09 PM 66.2 °F - 66.2 °F 100% 30.15 in 3.0 mi Variable 3.5 mph - 0.20 in Rain Light Rain
10:11 PM 66.2 °F - 66.2 °F 100% 30.14 in 5.0 mi Calm Calm - 0.20 in Rain Light Rain
10:20 PM 66.2 °F - 66.2 °F 100% 30.14 in 10.0 mi SSE 4.6 mph - 0.20 in   Mostly Cloudy
10:54 PM 66.9 °F - 66.0 °F 97% 30.08 in 10.0 mi SW 4.6 mph - 0.20 in   Clear
11:09 PM 66.2 °F - 66.2 °F 100% 30.15 in 10.0 mi SSE 5.8 mph - N/A   Mostly Cloudy
11:33 PM 66.2 °F - 66.2 °F 100% 30.14 in 10.0 mi South 4.6 mph - N/A   Overcast
11:54 PM 66.9 °F - 66.0 °F 97% 30.07 in 10.0 mi South 6.9 mph - N/A   Overcast